सभी
Avenger Fld Airport (Sweetwater, TX) SWW मौसम
|
Sweetwater, TX (KSWW)
स्वच्छ आकाश
हल्की हवाएं |
|
24 °C |
There is no TAF data available at SWW or any nearby airports.
Recent SWW METAR history
| Date | Time (CDT) | Flight Rules | Wind Dir. | Speed | Type | Height AGL (ft) | Visibility | Temp (°C) | Temp (°F) | Dew Point (°C) | Dew Point (°F) | Rel. Humid. | Pressure | Density Altitude | Remarks |
|---|---|---|---|---|---|---|---|---|---|---|---|---|---|---|---|
| 05-सितम्बर | 04:55 | VFR | 170° | 7 kt | 10 miles | 24° | 75° | 19° | 66° | 74% | 30.01 in Hg | 3,844 ft | |||
| 05-सितम्बर | 04:35 | VFR | 170° | 6 kt | 10 miles | 24° | 75° | 19° | 66° | 73% | 30.02 in Hg | 3,834 ft | |||
| 05-सितम्बर | 04:15 | VFR | 170° | 6 kt | 10 miles | 24° | 75° | 19° | 66° | 72% | 30.01 in Hg | 3,844 ft | |||
| 05-सितम्बर | 03:55 | VFR | 170° | 6 kt | 10 miles | 24° | 75° | 19° | 66° | 71% | 30.01 in Hg | 3,844 ft | |||
| 05-सितम्बर | 03:35 | VFR | 170° | 8 kt | 10 miles | 24° | 75° | 19° | 66° | 73% | 30.01 in Hg | 3,844 ft | |||
| 05-सितम्बर | 03:15 | VFR | 170° | 7 kt | 10 miles | 24° | 75° | 19° | 66° | 71% | 30.01 in Hg | 3,844 ft | |||
| 05-सितम्बर | 02:55 | VFR | 170° | 8 kt | 10 miles | 25° | 77° | 19° | 66° | 71% | 30.01 in Hg | 3,964 ft | |||
| 05-सितम्बर | 02:35 | VFR | 170° | 8 kt | 10 miles | 25° | 77° | 19° | 66° | 71% | 30.01 in Hg | 3,964 ft | |||
| 05-सितम्बर | 02:15 | VFR | 170° | 9 kt | 10 miles | 25° | 77° | 19° | 66° | 71% | 30.01 in Hg | 3,964 ft | |||
| 05-सितम्बर | 01:55 | VFR | 180° | 6 kt | 10 miles | 25° | 77° | 19° | 66° | 70% | 30.01 in Hg | 3,964 ft | |||
| 05-सितम्बर | 01:35 | VFR | 170° | 6 kt | 10 miles | 25° | 77° | 19° | 66° | 69% | 30.01 in Hg | 3,964 ft | |||
| 05-सितम्बर | 01:15 | VFR | 170° | 7 kt | 10 miles | 25° | 77° | 19° | 66° | 69% | 30.01 in Hg | 3,964 ft | |||
| 05-सितम्बर | 00:55 | VFR | 190° | 7 kt | 10 miles | 26° | 78° | 19° | 66° | 67% | 30.00 in Hg | 4,094 ft | |||
| 05-सितम्बर | 00:35 | VFR | 190° | 8 kt | 10 miles | 26° | 78° | 19° | 66° | 66% | 30.00 in Hg | 4,094 ft | |||
| 05-सितम्बर | 00:15 | VFR | 180° | 9 kt | 10 miles | 26° | 78° | 19° | 66° | 65% | 30.00 in Hg | 4,094 ft | |||
| 04-सितम्बर | 23:55 | VFR | 170° | 11 kt | 10 miles | 26° | 78° | 19° | 66° | 64% | 30.00 in Hg | 4,094 ft | Wind gusting to 16 KT | ||
| 04-सितम्बर | 23:35 | VFR | 170° | 10 kt | 10 miles | 27° | 80° | 19° | 66° | 64% | 30.00 in Hg | 4,214 ft | |||
| 04-सितम्बर | 23:15 | VFR | 180° | 10 kt | 10 miles | 27° | 80° | 19° | 66° | 65% | 30.00 in Hg | 4,214 ft | |||
| 04-सितम्बर | 22:55 | VFR | 180° | 12 kt | 10 miles | 27° | 80° | 19° | 66° | 64% | 30.00 in Hg | 4,214 ft | |||
| 04-सितम्बर | 22:35 | VFR | 180° | 12 kt | 10 miles | 26° | 78° | 19° | 66° | 65% | 30.00 in Hg | 4,094 ft | |||
| 04-सितम्बर | 22:15 | VFR | 180° | 9 kt | 10 miles | 26° | 78° | 20° | 68° | 67% | 30.00 in Hg | 4,094 ft | |||
| 04-सितम्बर | 21:55 | VFR | 180° | 9 kt | 10 miles | 26° | 78° | 20° | 68° | 67% | 29.98 in Hg | 4,114 ft | |||
| 04-सितम्बर | 21:35 | VFR | 170° | 10 kt | 10 miles | 26° | 78° | 19° | 66° | 65% | 29.97 in Hg | 4,124 ft | |||
| 04-सितम्बर | 21:15 | VFR | 160° | 8 kt | 10 miles | 27° | 80° | 19° | 66° | 63% | 29.97 in Hg | 4,244 ft |
लॉगिन
| Your browser is unsupported. अपना ब्राऊजर अपग्रेड करें |
